Regional Weather Roundup
Issued by NWS

Home | Current Version | Previous Version | Text Only | Print | Product List | Glossary Off
Versions: 1 2 3 4 5 6 7 8 9 10 11 12 13 14 15 16 17 18 19 20 21 22 23 24 25 26 27 28 29 30 31 32 33 34 35 36 37 38 39 40 41 42 43 44 45 46 47 48 49 50

000
ASUS43 KMKX 281211
RWRWI

WISCONSIN REGIONAL WEATHER ROUNDUP
NATIONAL WEATHER SERVICE MILWAUKEE/SULLIVAN WI
700 AM CDT THU AUG 28 2014

NOTE: "FAIR" INDICATES FEW OR NO CLOUDS BELOW 12,000 FEET WITH NO
SIGNIFICANT WEATHER AND/OR OBSTRUCTIONS TO VISIBILITY.

WIZ001-002-006>008-014>016-023>028-281300-
NORTHWEST WISCONSIN

CITY           SKY/WX    TMP DP  RH WIND       PRES   REMARKS
SUPERIOR ARPT  FOG       46  46 100 CALM      30.12R VSB 1/4
6HR MIN TEMP:  45; 6HR MAX TEMP:  53;

ASHLAND        CLEAR     47  46  97 CALM      30.14S
6HR MIN TEMP:  44; 6HR MAX TEMP:  50;

HAYWARD        CLEAR     50  49  96 CALM      30.14S
6HR MIN TEMP:  47; 6HR MAX TEMP:  51;

SIREN          CLEAR     51  49  93 CALM      30.12R
6HR MIN TEMP:  50; 6HR MAX TEMP:  56;

RICE LAKE      CLEAR     53  48  83 CALM      30.14S
6HR MIN TEMP:  52; 6HR MAX TEMP:  55;

LADYSMITH      CLEAR     51  47  85 E6        30.15F
6HR MIN TEMP:  51; 6HR MAX TEMP:  55;

EAU CLAIRE     CLEAR     55  50  83 NE6       30.12R
6HR MIN TEMP:  52; 6HR MAX TEMP:  57;

MENOMONIE      SUNNY     55  50  86 CALM      30.12R
6HR MIN TEMP:  55; 6HR MAX TEMP:  59;

NEW RICHMOND   CLEAR     56  52  85 CALM      30.11S
6HR MIN TEMP:  56; 6HR MAX TEMP:  60;

OSCEOLA        CLEAR     57  56  95 SE3       30.13R
6HR MIN TEMP:  57; 6HR MAX TEMP:  63;

$$

WIZ003>005-009-010-017-018-281300-
NORTH CENTRAL WISCONSIN

CITY           SKY/WX    TMP DP  RH WIND       PRES   REMARKS
WOODRUFF       CLEAR     47  46  93 CALM      30.17S
6HR MIN TEMP:  47; 6HR MAX TEMP:  52;

RHINELANDER    CLEAR     47  45  93 E3        30.17F
6HR MIN TEMP:  43; 6HR MAX TEMP:  48;

EAGLE RIVER    FOG       40  40 100 CALM      30.17S VSB 1/4
6HR MIN TEMP:  38; 6HR MAX TEMP:  44;

LAND O LAKES   CLEAR     42  42 100 CALM      30.18S
6HR MIN TEMP:  39; 6HR MAX TEMP:  43;

PHILLIPS       CLEAR     47  46  96 E3        30.15F
6HR MIN TEMP:  46; 6HR MAX TEMP:  49;

TOMAHAWK       PTCLDY    39  38  97 CALM      30.17S
6HR MIN TEMP:  38; 6HR MAX TEMP:  44;

MEDFORD        CLEAR     47  46  96 E5        30.15S
6HR MIN TEMP:  46; 6HR MAX TEMP:  51;

MERRILL        CLEAR     46  45  99 CALM      30.16F
6HR MIN TEMP:  43; 6HR MAX TEMP:  49;

$$

WIZ029-030-035-036-043>047-281300-
CENTRAL WISCONSIN

CITY           SKY/WX    TMP DP  RH WIND       PRES   REMARKS
WAUSAU         CLEAR     52  50  93 CALM      30.14F
6HR MIN TEMP:  51; 6HR MAX TEMP:  57;

MOSINEE        MOCLDY    50  50 100 E3        30.16S
MARSHFIELD     CLEAR     53  50  89 E6        30.13F
6HR MIN TEMP:  52; 6HR MAX TEMP:  59;

STEVENS POINT  FOG       51  51  99 CALM      30.15S VSB 1/4
6HR MIN TEMP:  49; 6HR MAX TEMP:  52;

WAUPACA        CLOUDY    61  60  96 CALM      30.15F
6HR MIN TEMP:  57; 6HR MAX TEMP:  61;

WAUTOMA        LGT RAIN  58  58 100 CALM      30.15S VSB<1/4
6HR MIN TEMP:  55; 6HR MAX TEMP:  59; 6HR PCP: TRACE;

WISC RAPIDS    MOCLDY    54  52  93 E5        30.15S FOG
6HR MIN TEMP:  53; 6HR MAX TEMP:  58;

CAMP DOUGLAS   CLEAR     52  52 100 CALM      30.13S
$$

WIZ011>013-019>022-031-037>040-048>050-281300-
NORTHEAST WISCONSIN

CITY           SKY/WX    TMP DP  RH WIND       PRES   REMARKS
ANTIGO         FOG       50  50 100 NE3       30.17S VSB<1/4
6HR MIN TEMP:  46; 6HR MAX TEMP:  50;

STURGEON BAY   MOCLDY    57  52  82 SE5       30.17S
6HR MIN TEMP:  55; 6HR MAX TEMP:  59;

GREEN BAY      CLOUDY    60  57  89 CALM      30.16S
6HR MIN TEMP:  55; 6HR MAX TEMP:  60;

MANITOWOC      PTCLDY    58  56  93 SE5       30.16F
6HR MIN TEMP:  52; 6HR MAX TEMP:  58;

APPLETON       MOCLDY    59  55  88 CALM      30.15F
CLINTONVILLE   CLOUDY    57  55  94 CALM      30.15S
OSHKOSH        CLOUDY    60  58  92 S3        30.14S
6HR MIN TEMP:  57; 6HR MAX TEMP:  60;

$$

WIZ032>034-041-042-053>061-281300-
SOUTHWEST WISCONSIN

CITY           SKY/WX    TMP DP  RH WIND       PRES   REMARKS
LA CROSSE      CLEAR     60  57  89 E3        30.10F
6HR MIN TEMP:  59; 6HR MAX TEMP:  63;

SPARTA         CLEAR     53  52  95 CALM      30.12F
6HR MIN TEMP:  51; 6HR MAX TEMP:  56;

VIROQUA        PTSUNNY   58  58 100 E6        30.13S
6HR MIN TEMP:  56; 6HR MAX TEMP:  59;

BOSCOBEL       FOG       61  59  93 NE3       30.12S VSB 3/4
6HR MIN TEMP:  59; 6HR MAX TEMP:  61;

PRAIRIE DU CHI CLEAR     60  58  95 CALM      30.10S
6HR MIN TEMP:  59; 6HR MAX TEMP:  61;

PLATTEVILLE    CLOUDY    62  61  97 CALM      30.13R
6HR MIN TEMP:  61; 6HR MAX TEMP:  65;

$$

WIZ056-057-062-063-064-067-068-281300-
SOUTH CENTRAL WISCONSIN

CITY           SKY/WX    TMP DP  RH WIND       PRES   REMARKS
BARABOO/DELLS  CLEAR     58  57  95 CALM      30.14R FOG
6HR MIN TEMP:  56; 6HR MAX TEMP:  59;

LONE ROCK      FOG       61  58  90 CALM      30.13S VSB 1/4
6HR MIN TEMP:  61; 6HR MAX TEMP:  64;

WATERTOWN      CLEAR     55  55 100 CALM      30.14S
6HR MIN TEMP:  54; 6HR MAX TEMP:  59;

MADISON        MOCLDY    58  56  93 CALM      30.14S
6HR MIN TEMP:  56; 6HR MAX TEMP:  64;

MIDDLETON      CLOUDY    61  61 100 CALM      30.14S
6HR MIN TEMP:  55; 6HR MAX TEMP:  62;

MONROE         CLEAR     59  59 100 E5        30.14R FOG
JANESVILLE     CLEAR     61  57  88 CALM      30.13S
$$

WIZ051-052-058>065-066-070>072-281300-
SOUTHEAST WISCONSIN

CITY           SKY/WX    TMP DP  RH WIND       PRES   REMARKS
MILWAUKEE      PTCLDY    64  56  75 SE10      30.15R
6HR MIN TEMP:  60; 6HR MAX TEMP:  64;

WAUKESHA       CLEAR     54  54 100 CALM      30.17R
MILWAUKEE/TIMM CLEAR     55  54  94 CALM      30.16R
RACINE         CLEAR     65  55  70 SE10      30.17R
6HR MIN TEMP:  60; 6HR MAX TEMP:  65;

BURLINGTON     FOG       53  53 100 CALM      30.15S VSB 3/4
6HR MIN TEMP:  52; 6HR MAX TEMP:  57;

KENOSHA        CLEAR     63  57  81 E8        30.16R
6HR MIN TEMP:  56; 6HR MAX TEMP:  63;

FOND DU LAC    CLEAR     58  55  90 SE5       30.15S
6HR MIN TEMP:  56; 6HR MAX TEMP:  61;

SHEBOYGAN      CLEAR     55  53  93 CALM      30.16S
6HR MIN TEMP:  52; 6HR MAX TEMP:  56;

WEST BEND      CLEAR     52  50  93 CALM      30.16S
JUNEAU         CLEAR     57  56  94 E3        30.16R
6HR MIN TEMP:  55; 6HR MAX TEMP:  60;

$$

LSZ147-162-281300-
LAKE SUPERIOR

STATION/POSITION TIME  TEMP    WIND        PRES    WAVE
                       AIR SEA DIR/SP/G            HT/PER
                 (UTC) (F)     (DEG/KT/KT) (MB)    (FT/S)
W MID LAKE BUOY  1150   57 56  140/  6/  6 1020.4F   1
DEVILS ISLAND    1200   58     200/  7/  9 1020.5S
PORT WING        1100   55     120/  2/  2 1020.3S
SAXON HARBOR     1100   55     200/  5/  8 1020.3S
$$

LMZ867-665-643>646-281300-
LAKE MICHIGAN

STATION/POSITION TIME  TEMP    WIND        PRES    WAVE
                       AIR SEA DIR/SP/G            HT/PER
                 (UTC) (F)     (DEG/KT/KT) (MB)    (FT/S)
N MID LAKE BUOY  1150   63 65   CALM  /  2 1022.1R   0
NORTHPORT PIER   1100   61     180/  4/  5 1021.7R
SISTER BAY       1111   59        CALM       N/A
KEWAUNEE LAKESHO 1100   63     140/  6/  8 1020.5R
SHEBOYGAN LAKESH 1200   64 68  130/ 11/ 13 1021.3R
ATWATER BUOY     1200   67     130/ 14/ 16 1021.8R
MILWAUKEE LAKESH 1100   66     110/ 12/ 13   N/A
S MID LAKE BUOY  1150   65 69  100/ 14/ 16 1021.0R   2/ 3
KENOSHA   LAKESH 1200   68     110/ 14/ 16 1020.7R
$$

TC  - TEMPERATURE IN CELSIUS
VSB - VISIBILITY IN STATUTE MILES
WCI - WIND CHILL INDEX
HX  - HEAT INDEX




USA.gov is the U.S. government's official web portal to all federal, state and local government web resources and services.